Weather History for LTAG - December, 2012

Change the Weather History Date:

Saturday, December 8, 2012

  Actual Average Record
Temperature  
Mean Temperature 55 °F -  
Max Temperature 64 °F 61 °F 77 °F (2005)
Min Temperature 46 °F 44 °F 33 °F (2007)
Degree Days  
Heating Degree Days 10    
Growing Degree Days 5 (Base 50)    
Moisture  
Dew Point 47 °F    
Average Humidity 81    
Maximum Humidity 100    
Minimum Humidity 33    
Precipitation  
Precipitation 0.00 in - - ()
Sea Level Pressure  
Sea Level Pressure 29.97 in    
Wind  
Wind Speed 5 mph ()    
Max Wind Speed 12 mph    
Max Gust Speed -    
Visibility 6.2 miles    
Events Rain    
Averages and records for this station are not official NWS values.
T = Trace of Precipitation, MM = Missing Value Source: Averaged Metar Reports

Daily Weather History Graph

Daily Weather History Graph

Search for Another Location

Airport or City:

Trip Planner

Search our weather history database for the weather conditions in past years. The results will help you decide how hot, cold, wet, or windy it might be!

Date:

Astronomy

Dec. 08, 2012 Rise Set
Actual Time 6:39 AM EET 4:21 PM EET
Civil Twilight 6:10 AM EET 4:50 PM EET
Nautical Twilight 5:37 AM EET 5:22 PM EET
Astronomical Twilight 5:06 AM EET 5:54 PM EET
Moon 12:47 AM EET (12/8) 12:33 PM EET (12/8)
Length of Visible Light 10h 39m
Length of Day
9h 42m
Waning Crescent, 31% of the Moon is Illuminated
Dec 8
Waning Crescent
Dec 13
New
Dec 20
First Quarter
Dec 28
Full
Jan 5
Last Quarter

Hourly Weather History & Observations

Time (EET) Temp. Dew Point Humidity Pressure Visibility Wind Dir Wind Speed Gust Speed Precip Events Conditions
12:20 AM 50.0 °F 50.0 °F 100% 29.86 in 6.2 mi ENE 4.6 mph - N/A   Mostly Cloudy
12:50 AM 50.0 °F 50.0 °F 100% 29.86 in 6.2 mi NE 5.8 mph - N/A   Mostly Cloudy
1:50 AM 51.8 °F 50.0 °F 94% 29.86 in 6.2 mi SE 2.3 mph - N/A   Mostly Cloudy
2:00 AM 51 °F 49 °F 91% 29.87 in 6 mi SE 2.3 mph - - Rain Light Rain Showers
2:20 AM 48.2 °F 48.2 °F 100% 29.86 in 6.2 mi Variable 2.3 mph - N/A   Mostly Cloudy
2:50 AM 48.2 °F 48.2 °F 100% 29.86 in 6.2 mi WNW 4.6 mph - N/A   Mostly Cloudy
3:20 AM 48.2 °F 48.2 °F 100% 29.86 in 6.2 mi WNW 4.6 mph - N/A   Mostly Cloudy
3:50 AM 48.2 °F 48.2 °F 100% 29.86 in 6.2 mi North 3.5 mph - N/A   Mostly Cloudy
4:20 AM 48.2 °F 48.2 °F 100% 29.86 in 6.2 mi North 3.5 mph - N/A   Mostly Cloudy
4:50 AM 48.2 °F 46.4 °F 93% 29.89 in 6.2 mi NE 5.8 mph - N/A   Mostly Cloudy
5:20 AM 48.2 °F 48.2 °F 100% 29.89 in 6.2 mi NE 6.9 mph - N/A   Mostly Cloudy
5:50 AM 48.2 °F 48.2 °F 100% 29.89 in 6.2 mi NE 6.9 mph - N/A Rain Light Rain Showers
6:20 AM 50.0 °F 50.0 °F 100% 29.92 in 6.2 mi NE 10.4 mph - N/A Rain Light Rain Showers
6:50 AM 50.0 °F 50.0 °F 100% 29.92 in 6.2 mi NE 6.9 mph - N/A   Mostly Cloudy
7:20 AM 51.8 °F 51.8 °F 100% 29.95 in 6.2 mi NNE 10.4 mph - N/A   Mostly Cloudy
7:50 AM 51.8 °F 51.8 °F 100% 29.95 in 6.2 mi NE 9.2 mph - N/A   Mostly Cloudy
8:00 AM 52 °F 51 °F 97% 29.95 in 6 mi NE 9.2 mph - -   Partly Cloudy
8:20 AM 53.6 °F 51.8 °F 94% 29.95 in 6.2 mi North 4.6 mph - N/A   Mostly Cloudy
8:50 AM 55.4 °F 51.8 °F 88% 29.95 in 6.2 mi NE 5.8 mph - N/A   Scattered Clouds
9:20 AM 57.2 °F 50.0 °F 77% 29.98 in 6.2 mi NNE 9.2 mph - N/A   Scattered Clouds
9:50 AM 59.0 °F 48.2 °F 67% 29.98 in 6.2 mi NE 11.5 mph - N/A   Scattered Clouds
10:20 AM 59.0 °F 46.4 °F 63% 29.98 in 6.2 mi NE 11.5 mph - N/A   Scattered Clouds
10:50 AM 59.0 °F 42.8 °F 55% 29.98 in 6.2 mi NNE 10.4 mph - N/A   Scattered Clouds
11:20 AM 62.6 °F 41.0 °F 45% 29.98 in 6.2 mi NE 9.2 mph - N/A   Scattered Clouds
11:50 AM 62.6 °F 39.2 °F 42% 29.98 in 6.2 mi NE 11.5 mph - N/A   Scattered Clouds
12:20 PM 62.6 °F 42.8 °F 48% 29.98 in 6.2 mi NE 11.5 mph - N/A   Scattered Clouds
12:50 PM 62.6 °F 41.0 °F 45% 29.98 in 6.2 mi NE 6.9 mph - N/A   Scattered Clouds
1:20 PM 62.6 °F 41.0 °F 45% 29.98 in 6.2 mi ESE 5.8 mph - N/A   Scattered Clouds
1:50 PM 64.4 °F 41.0 °F 42% 29.98 in 6.2 mi East 5.8 mph - N/A   Scattered Clouds
2:00 PM 64 °F 42 °F 33% 29.98 in 6 mi East 5.8 mph - -   Scattered Clouds
2:20 PM 62.6 °F 42.8 °F 48% 29.98 in 6.2 mi ESE 8.1 mph - N/A   Scattered Clouds
2:50 PM 62.6 °F 42.8 °F 48% 29.98 in 6.2 mi East 5.8 mph - N/A   Scattered Clouds
3:50 PM 59.0 °F 44.6 °F 59% 29.98 in 6.2 mi ESE 3.5 mph - N/A   Scattered Clouds
4:20 PM 59.0 °F 44.6 °F 59% 29.98 in 6.2 mi SE 3.5 mph - N/A   Scattered Clouds
4:50 PM 55.4 °F 46.4 °F 72% 30.01 in 6.2 mi ESE 2.3 mph - N/A   Scattered Clouds
5:20 PM 53.6 °F 46.4 °F 77% 30.01 in 6.2 mi ENE 2.3 mph - N/A   Scattered Clouds
5:50 PM 50.0 °F 46.4 °F 87% 30.04 in 6.2 mi NNE 3.5 mph - N/A   Scattered Clouds
6:20 PM 50.0 °F 48.2 °F 94% 30.04 in 6.2 mi NE 6.9 mph - N/A   Scattered Clouds
6:50 PM 48.2 °F 48.2 °F 100% 30.04 in 6.2 mi NE 6.9 mph - N/A   Scattered Clouds
7:20 PM 48.2 °F 46.4 °F 93% 30.06 in 6.2 mi NE 4.6 mph - N/A   Mostly Cloudy
7:50 PM 48.2 °F 46.4 °F 93% 30.06 in 6.2 mi NNE 5.8 mph - N/A   Mostly Cloudy
8:00 PM 48 °F 47 °F 93% 30.07 in 6 mi NNE 5.8 mph - -   Scattered Clouds
8:20 PM 48.2 °F 48.2 °F 100% 30.06 in 6.2 mi NNE 4.6 mph - N/A   Mostly Cloudy
8:50 PM 48.2 °F 46.4 °F 93% 30.06 in 6.2 mi NE 6.9 mph - N/A   Mostly Cloudy
9:20 PM 48.2 °F 46.4 °F 93% 30.06 in 6.2 mi NE 8.1 mph - N/A   Mostly Cloudy
9:50 PM 50.0 °F 48.2 °F 94% 30.06 in 6.2 mi NNE 8.1 mph - N/A   Mostly Cloudy
10:20 PM 50.0 °F 46.4 °F 87% 30.06 in 6.2 mi NNE 6.9 mph - N/A   Mostly Cloudy
10:50 PM 50.0 °F 46.4 °F 87% 30.06 in 6.2 mi NE 8.1 mph - N/A   Mostly Cloudy
11:20 PM 50.0 °F 46.4 °F 87% 30.06 in 6.2 mi NNE 5.8 mph - N/A   Mostly Cloudy
11:50 PM 51.8 °F 46.4 °F 82% 30.09 in 6.2 mi NE 4.6 mph - N/A   Mostly Cloudy